owner,sensor,date,latitude,longitude,air_temperature,qcFlag 
DISL,ioos:station:DISL:MHPA:1,2009-09-01T00:00:00Z,30.6671,-87.9365,27.11,1111122 
DISL,ioos:station:DISL:MHPA:1,2009-09-01T00:30:00Z,30.6671,-87.9365,26.44,1111122 
DISL,ioos:station:DISL:MHPA:1,2009-09-01T01:00:00Z,30.6671,-87.9365,25.79,1111122 
DISL,ioos:station:DISL:MHPA:1,2009-09-01T01:30:00Z,30.6671,-87.9365,25.53,1111122 
DISL,ioos:station:DISL:MHPA:1,2009-09-01T02:00:00Z,30.6671,-87.9365,25.31,1111122 
DISL,ioos:station:DISL:MHPA:1,2009-09-01T02:30:00Z,30.6671,-87.9365,25.02,1111122 
DISL,ioos:station:DISL:MHPA:1,2009-09-01T03:00:00Z,30.6671,-87.9365,24.72,1111122 
DISL,ioos:station:DISL:MHPA:1,2009-09-01T03:30:00Z,30.6671,-87.9365,24.48,1111122 
DISL,ioos:station:DISL:MHPA:1,2009-09-01T04:00:00Z,30.6671,-87.9365,23.9,1111122 
DISL,ioos:station:DISL:MHPA:1,2009-09-01T04:30:00Z,30.6671,-87.9365,23.79,1111122 
DISL,ioos:station:DISL:MHPA:1,2009-09-01T05:00:00Z,30.6671,-87.9365,23.52,1111122 
DISL,ioos:station:DISL:MHPA:1,2009-09-01T05:30:00Z,30.6671,-87.9365,23.53,1111122 
DISL,ioos:station:DISL:MHPA:1,2009-09-01T06:00:00Z,30.6671,-87.9365,23.27,1111122 
DISL,ioos:station:DISL:MHPA:1,2009-09-01T06:30:00Z,30.6671,-87.9365,23.16,1111122 
DISL,ioos:station:DISL:MHPA:1,2009-09-01T07:00:00Z,30.6671,-87.9365,22.91,1111122 
DISL,ioos:station:DISL:MHPA:1,2009-09-01T07:30:00Z,30.6671,-87.9365,22.59,1111122 
DISL,ioos:station:DISL:MHPA:1,2009-09-01T08:00:00Z,30.6671,-87.9365,22.51,1111122 
DISL,ioos:station:DISL:MHPA:1,2009-09-01T08:30:00Z,30.6671,-87.9365,22.65,1111122 
DISL,ioos:station:DISL:MHPA:1,2009-09-01T09:00:00Z,30.6671,-87.9365,22.39,1111122 
DISL,ioos:station:DISL:MHPA:1,2009-09-01T09:30:00Z,30.6671,-87.9365,22.42,1111122 
DISL,ioos:station:DISL:MHPA:1,2009-09-01T10:00:00Z,30.6671,-87.9365,22.19,1111122 
DISL,ioos:station:DISL:MHPA:1,2009-09-01T10:30:00Z,30.6671,-87.9365,21.99,1111122 
DISL,ioos:station:DISL:MHPA:1,2009-09-01T11:00:00Z,30.6671,-87.9365,21.96,1111122 
DISL,ioos:station:DISL:MHPA:1,2009-09-01T11:30:00Z,30.6671,-87.9365,21.87,1111122 
DISL,ioos:station:DISL:MHPA:1,2009-09-01T12:00:00Z,30.6671,-87.9365,21.68,1111122 
DISL,ioos:station:DISL:MHPA:1,2009-09-01T12:30:00Z,30.6671,-87.9365,21.72,1111122 
DISL,ioos:station:DISL:MHPA:1,2009-09-01T13:00:00Z,30.6671,-87.9365,21.84,1111122 
DISL,ioos:station:DISL:MHPA:1,2009-09-01T13:30:00Z,30.6671,-87.9365,22.58,1111122 
DISL,ioos:station:DISL:MHPA:1,2009-09-01T14:00:00Z,30.6671,-87.9365,22.76,1111122 
DISL,ioos:station:DISL:MHPA:1,2009-09-01T14:30:00Z,30.6671,-87.9365,23.55,1111122 
DISL,ioos:station:DISL:MHPA:1,2009-09-01T15:00:00Z,30.6671,-87.9365,24.48,1111122 
DISL,ioos:station:DISL:MHPA:1,2009-09-01T15:30:00Z,30.6671,-87.9365,25.38,1111122 
DISL,ioos:station:DISL:MHPA:1,2009-09-01T16:00:00Z,30.6671,-87.9365,26.32,1111122 
DISL,ioos:station:DISL:MHPA:1,2009-09-01T16:30:00Z,30.6671,-87.9365,27.15,1111122 
DISL,ioos:station:DISL:MHPA:1,2009-09-01T17:00:00Z,30.6671,-87.9365,27.56,1111122 
DISL,ioos:station:DISL:MHPA:1,2009-09-01T17:30:00Z,30.6671,-87.9365,28.28,1111122 
DISL,ioos:station:DISL:MHPA:1,2009-09-01T18:00:00Z,30.6671,-87.9365,28.79,1111122 
DISL,ioos:station:DISL:MHPA:1,2009-09-01T18:30:00Z,30.6671,-87.9365,29.1,1111122 
DISL,ioos:station:DISL:MHPA:1,2009-09-01T19:00:00Z,30.6671,-87.9365,29.44,1111122 
DISL,ioos:station:DISL:MHPA:1,2009-09-01T19:30:00Z,30.6671,-87.9365,30.07,1111122 
DISL,ioos:station:DISL:MHPA:1,2009-09-01T20:00:00Z,30.6671,-87.9365,29.82,1111122 
DISL,ioos:station:DISL:MHPA:1,2009-09-01T20:30:00Z,30.6671,-87.9365,30.22,1111122 
DISL,ioos:station:DISL:MHPA:1,2009-09-01T21:00:00Z,30.6671,-87.9365,30.09,1111122 
DISL,ioos:station:DISL:MHPA:1,2009-09-01T21:30:00Z,30.6671,-87.9365,30.06,1111122 
DISL,ioos:station:DISL:MHPA:1,2009-09-01T22:00:00Z,30.6671,-87.9365,29.15,1111122 
DISL,ioos:station:DISL:MHPA:1,2009-09-01T22:30:00Z,30.6671,-87.9365,29.05,1111122 
DISL,ioos:station:DISL:MHPA:1,2009-09-01T23:00:00Z,30.6671,-87.9365,29.14,1111122 
DISL,ioos:station:DISL:MHPA:1,2009-09-01T23:30:00Z,30.6671,-87.9365,28.58,1111122 
DISL,ioos:station:DISL:MHPA:1,2009-09-02T00:00:00Z,30.6671,-87.9365,27.38,1111122 
DISL,ioos:station:DISL:MHPA:1,2009-09-02T00:30:00Z,30.6671,-87.9365,26.5,1111122 
DISL,ioos:station:DISL:MHPA:1,2009-09-02T01:00:00Z,30.6671,-87.9365,25.94,1111122 
DISL,ioos:station:DISL:MHPA:1,2009-09-02T01:30:00Z,30.6671,-87.9365,25.32,1111122 
DISL,ioos:station:DISL:MHPA:1,2009-09-02T02:00:00Z,30.6671,-87.9365,24.89,1111122 
DISL,ioos:station:DISL:MHPA:1,2009-09-02T02:30:00Z,30.6671,-87.9365,24.34,1111122 
DISL,ioos:station:DISL:MHPA:1,2009-09-02T03:00:00Z,30.6671,-87.9365,24.2,1111122 
DISL,ioos:station:DISL:MHPA:1,2009-09-02T03:30:00Z,30.6671,-87.9365,24.33,1111122 
DISL,ioos:station:DISL:MHPA:1,2009-09-02T04:00:00Z,30.6671,-87.9365,23.54,1111122 
DISL,ioos:station:DISL:MHPA:1,2009-09-02T04:30:00Z,30.6671,-87.9365,23.21,1111122 
DISL,ioos:station:DISL:MHPA:1,2009-09-02T05:00:00Z,30.6671,-87.9365,22.99,1111122 
DISL,ioos:station:DISL:MHPA:1,2009-09-02T05:30:00Z,30.6671,-87.9365,23.02,1111122 
DISL,ioos:station:DISL:MHPA:1,2009-09-02T06:00:00Z,30.6671,-87.9365,22.7,1111122 
DISL,ioos:station:DISL:MHPA:1,2009-09-02T06:30:00Z,30.6671,-87.9365,22.51,1111122 
DISL,ioos:station:DISL:MHPA:1,2009-09-02T07:00:00Z,30.6671,-87.9365,22.13,1111122 
DISL,ioos:station:DISL:MHPA:1,2009-09-02T07:30:00Z,30.6671,-87.9365,21.94,1111122 
DISL,ioos:station:DISL:MHPA:1,2009-09-02T08:00:00Z,30.6671,-87.9365,21.59,1111122 
DISL,ioos:station:DISL:MHPA:1,2009-09-02T08:30:00Z,30.6671,-87.9365,21.46,1111122 
DISL,ioos:station:DISL:MHPA:1,2009-09-02T09:00:00Z,30.6671,-87.9365,21.45,1111122 
DISL,ioos:station:DISL:MHPA:1,2009-09-02T09:30:00Z,30.6671,-87.9365,21.13,1111122 
DISL,ioos:station:DISL:MHPA:1,2009-09-02T10:00:00Z,30.6671,-87.9365,21.21,1111122 
DISL,ioos:station:DISL:MHPA:1,2009-09-02T10:30:00Z,30.6671,-87.9365,21.15,1111122 
DISL,ioos:station:DISL:MHPA:1,2009-09-02T11:00:00Z,30.6671,-87.9365,21.27,1111122 
DISL,ioos:station:DISL:MHPA:1,2009-09-02T11:30:00Z,30.6671,-87.9365,21.27,1111122 
DISL,ioos:station:DISL:MHPA:1,2009-09-02T12:00:00Z,30.6671,-87.9365,21.09,1111122 
DISL,ioos:station:DISL:MHPA:1,2009-09-02T12:30:00Z,30.6671,-87.9365,21.14,1111122 
DISL,ioos:station:DISL:MHPA:1,2009-09-02T13:00:00Z,30.6671,-87.9365,21.38,1111122 
DISL,ioos:station:DISL:MHPA:1,2009-09-02T13:30:00Z,30.6671,-87.9365,22.25,1111122 
DISL,ioos:station:DISL:MHPA:1,2009-09-02T14:00:00Z,30.6671,-87.9365,22.84,1111122 
DISL,ioos:station:DISL:MHPA:1,2009-09-02T14:30:00Z,30.6671,-87.9365,23.43,1111122 
DISL,ioos:station:DISL:MHPA:1,2009-09-02T15:00:00Z,30.6671,-87.9365,24.13,1111122 
DISL,ioos:station:DISL:MHPA:1,2009-09-02T15:30:00Z,30.6671,-87.9365,24.81,1111122 
DISL,ioos:station:DISL:MHPA:1,2009-09-02T16:00:00Z,30.6671,-87.9365,25.5,1111122 
DISL,ioos:station:DISL:MHPA:1,2009-09-02T16:30:00Z,30.6671,-87.9365,25.78,1111122 
DISL,ioos:station:DISL:MHPA:1,2009-09-02T17:00:00Z,30.6671,-87.9365,26.46,1111122 
DISL,ioos:station:DISL:MHPA:1,2009-09-02T17:30:00Z,30.6671,-87.9365,27.28,1111122 
DISL,ioos:station:DISL:MHPA:1,2009-09-02T18:00:00Z,30.6671,-87.9365,27.2,1111122 
DISL,ioos:station:DISL:MHPA:1,2009-09-02T18:30:00Z,30.6671,-87.9365,28.13,1111122 
DISL,ioos:station:DISL:MHPA:1,2009-09-02T19:00:00Z,30.6671,-87.9365,28.63,1111122 
DISL,ioos:station:DISL:MHPA:1,2009-09-02T19:30:00Z,30.6671,-87.9365,28.64,1111122 
DISL,ioos:station:DISL:MHPA:1,2009-09-02T20:00:00Z,30.6671,-87.9365,29.21,1111122 
DISL,ioos:station:DISL:MHPA:1,2009-09-02T20:30:00Z,30.6671,-87.9365,29.22,1111122 
DISL,ioos:station:DISL:MHPA:1,2009-09-02T21:00:00Z,30.6671,-87.9365,29.65,1111122 
DISL,ioos:station:DISL:MHPA:1,2009-09-02T21:30:00Z,30.6671,-87.9365,28.76,1111122 
DISL,ioos:station:DISL:MHPA:1,2009-09-02T22:00:00Z,30.6671,-87.9365,25.14,1111122 
DISL,ioos:station:DISL:MHPA:1,2009-09-02T22:30:00Z,30.6671,-87.9365,24.9,1111122 
DISL,ioos:station:DISL:MHPA:1,2009-09-02T23:00:00Z,30.6671,-87.9365,22.84,1111122 
DISL,ioos:station:DISL:MHPA:1,2009-09-02T23:30:00Z,30.6671,-87.9365,23.47,1111122 
DISL,ioos:station:DISL:MHPA:1,2009-09-03T00:00:00Z,30.6671,-87.9365,23.7,1111122 
DISL,ioos:station:DISL:MHPA:1,2009-09-03T00:30:00Z,30.6671,-87.9365,23.55,1111122 
DISL,ioos:station:DISL:MHPA:1,2009-09-03T01:00:00Z,30.6671,-87.9365,23.36,1111122 
DISL,ioos:station:DISL:MHPA:1,2009-09-03T01:30:00Z,30.6671,-87.9365,22.9,1111122 
DISL,ioos:station:DISL:MHPA:1,2009-09-03T02:00:00Z,30.6671,-87.9365,22.66,1111122 
DISL,ioos:station:DISL:MHPA:1,2009-09-03T02:30:00Z,30.6671,-87.9365,22.54,1111122 
DISL,ioos:station:DISL:MHPA:1,2009-09-03T03:00:00Z,30.6671,-87.9365,22.39,1111122 
DISL,ioos:station:DISL:MHPA:1,2009-09-03T03:30:00Z,30.6671,-87.9365,22.2,1111122 
DISL,ioos:station:DISL:MHPA:1,2009-09-03T04:00:00Z,30.6671,-87.9365,22.16,1111122 
DISL,ioos:station:DISL:MHPA:1,2009-09-03T04:30:00Z,30.6671,-87.9365,22.22,1111122 
DISL,ioos:station:DISL:MHPA:1,2009-09-03T05:00:00Z,30.6671,-87.9365,22.1,1111122 
DISL,ioos:station:DISL:MHPA:1,2009-09-03T05:30:00Z,30.6671,-87.9365,22.13,1111122 
DISL,ioos:station:DISL:MHPA:1,2009-09-03T06:00:00Z,30.6671,-87.9365,22.13,1111122 
DISL,ioos:station:DISL:MHPA:1,2009-09-03T06:30:00Z,30.6671,-87.9365,22.0,1111122 
DISL,ioos:station:DISL:MHPA:1,2009-09-03T07:00:00Z,30.6671,-87.9365,22.01,1111122 
DISL,ioos:station:DISL:MHPA:1,2009-09-03T07:30:00Z,30.6671,-87.9365,22.02,1111122 
DISL,ioos:station:DISL:MHPA:1,2009-09-03T08:00:00Z,30.6671,-87.9365,21.76,1111122 
DISL,ioos:station:DISL:MHPA:1,2009-09-03T08:30:00Z,30.6671,-87.9365,21.52,1111122 
DISL,ioos:station:DISL:MHPA:1,2009-09-03T09:00:00Z,30.6671,-87.9365,21.69,1111122 
DISL,ioos:station:DISL:MHPA:1,2009-09-03T09:30:00Z,30.6671,-87.9365,21.72,1111122 
DISL,ioos:station:DISL:MHPA:1,2009-09-03T10:00:00Z,30.6671,-87.9365,21.55,1111122 
DISL,ioos:station:DISL:MHPA:1,2009-09-03T10:30:00Z,30.6671,-87.9365,21.48,1111122 
DISL,ioos:station:DISL:MHPA:1,2009-09-03T11:00:00Z,30.6671,-87.9365,21.51,1111122 
DISL,ioos:station:DISL:MHPA:1,2009-09-03T11:30:00Z,30.6671,-87.9365,21.66,1111122 
DISL,ioos:station:DISL:MHPA:1,2009-09-03T12:00:00Z,30.6671,-87.9365,21.78,1111122 
DISL,ioos:station:DISL:MHPA:1,2009-09-03T12:30:00Z,30.6671,-87.9365,21.91,1111122 
DISL,ioos:station:DISL:MHPA:1,2009-09-03T13:00:00Z,30.6671,-87.9365,22.48,1111122 
DISL,ioos:station:DISL:MHPA:1,2009-09-03T13:30:00Z,30.6671,-87.9365,23.45,1111122 
DISL,ioos:station:DISL:MHPA:1,2009-09-03T14:00:00Z,30.6671,-87.9365,24.3,1111122 
DISL,ioos:station:DISL:MHPA:1,2009-09-03T14:30:00Z,30.6671,-87.9365,25.1,1111122 
DISL,ioos:station:DISL:MHPA:1,2009-09-03T15:00:00Z,30.6671,-87.9365,25.49,1111122 
DISL,ioos:station:DISL:MHPA:1,2009-09-03T15:30:00Z,30.6671,-87.9365,25.88,1111122 
DISL,ioos:station:DISL:MHPA:1,2009-09-03T16:00:00Z,30.6671,-87.9365,26.1,1111122 
DISL,ioos:station:DISL:MHPA:1,2009-09-03T16:30:00Z,30.6671,-87.9365,26.89,1111122 
DISL,ioos:station:DISL:MHPA:1,2009-09-03T17:00:00Z,30.6671,-87.9365,27.26,1111122 
DISL,ioos:station:DISL:MHPA:1,2009-09-03T17:30:00Z,30.6671,-87.9365,27.74,1111122 
DISL,ioos:station:DISL:MHPA:1,2009-09-03T18:00:00Z,30.6671,-87.9365,26.82,1111122 
DISL,ioos:station:DISL:MHPA:1,2009-09-03T18:30:00Z,30.6671,-87.9365,26.88,1111122 
DISL,ioos:station:DISL:MHPA:1,2009-09-03T19:00:00Z,30.6671,-87.9365,26.92,1111122 
DISL,ioos:station:DISL:MHPA:1,2009-09-03T19:30:00Z,30.6671,-87.9365,26.98,1111122 
DISL,ioos:station:DISL:MHPA:1,2009-09-03T20:00:00Z,30.6671,-87.9365,25.46,1111122 
DISL,ioos:station:DISL:MHPA:1,2009-09-03T20:30:00Z,30.6671,-87.9365,24.21,1111122 
DISL,ioos:station:DISL:MHPA:1,2009-09-03T21:00:00Z,30.6671,-87.9365,24.66,1111122 
DISL,ioos:station:DISL:MHPA:1,2009-09-03T21:30:00Z,30.6671,-87.9365,24.82,1111122 
DISL,ioos:station:DISL:MHPA:1,2009-09-03T22:00:00Z,30.6671,-87.9365,24.57,1111122 
DISL,ioos:station:DISL:MHPA:1,2009-09-03T22:30:00Z,30.6671,-87.9365,24.83,1111122 
DISL,ioos:station:DISL:MHPA:1,2009-09-03T23:00:00Z,30.6671,-87.9365,24.79,1111122 
DISL,ioos:station:DISL:MHPA:1,2009-09-03T23:30:00Z,30.6671,-87.9365,24.37,1111122 
DISL,ioos:station:DISL:MHPA:1,2009-09-04T00:00:00Z,30.6671,-87.9365,24.06,1111122 
DISL,ioos:station:DISL:MHPA:1,2009-09-04T00:30:00Z,30.6671,-87.9365,23.9,1111122 
DISL,ioos:station:DISL:MHPA:1,2009-09-04T01:00:00Z,30.6671,-87.9365,23.53,1111122 
DISL,ioos:station:DISL:MHPA:1,2009-09-04T01:30:00Z,30.6671,-87.9365,23.33,1111122 
DISL,ioos:station:DISL:MHPA:1,2009-09-04T02:00:00Z,30.6671,-87.9365,23.42,1111122 
DISL,ioos:station:DISL:MHPA:1,2009-09-04T02:30:00Z,30.6671,-87.9365,23.79,1111122 
DISL,ioos:station:DISL:MHPA:1,2009-09-04T03:00:00Z,30.6671,-87.9365,24.15,1111122 
DISL,ioos:station:DISL:MHPA:1,2009-09-04T03:30:00Z,30.6671,-87.9365,24.28,1111122 
DISL,ioos:station:DISL:MHPA:1,2009-09-04T04:00:00Z,30.6671,-87.9365,23.5,1111122 
DISL,ioos:station:DISL:MHPA:1,2009-09-04T04:30:00Z,30.6671,-87.9365,23.45,1111122 
DISL,ioos:station:DISL:MHPA:1,2009-09-04T05:00:00Z,30.6671,-87.9365,23.42,1111122 
DISL,ioos:station:DISL:MHPA:1,2009-09-04T05:30:00Z,30.6671,-87.9365,23.48,1111122 
DISL,ioos:station:DISL:MHPA:1,2009-09-04T06:00:00Z,30.6671,-87.9365,23.91,1111122 
DISL,ioos:station:DISL:MHPA:1,2009-09-04T06:30:00Z,30.6671,-87.9365,24.03,1111122 
DISL,ioos:station:DISL:MHPA:1,2009-09-04T07:00:00Z,30.6671,-87.9365,23.83,1111122 
DISL,ioos:station:DISL:MHPA:1,2009-09-04T07:30:00Z,30.6671,-87.9365,23.26,1111122 
DISL,ioos:station:DISL:MHPA:1,2009-09-04T08:00:00Z,30.6671,-87.9365,22.91,1111122 
DISL,ioos:station:DISL:MHPA:1,2009-09-04T08:30:00Z,30.6671,-87.9365,22.42,1111122 
DISL,ioos:station:DISL:MHPA:1,2009-09-04T09:00:00Z,30.6671,-87.9365,22.73,1111122 
DISL,ioos:station:DISL:MHPA:1,2009-09-04T09:30:00Z,30.6671,-87.9365,22.34,1111122 
DISL,ioos:station:DISL:MHPA:1,2009-09-04T10:00:00Z,30.6671,-87.9365,22.19,1111122 
DISL,ioos:station:DISL:MHPA:1,2009-09-04T10:30:00Z,30.6671,-87.9365,22.31,1111122 
DISL,ioos:station:DISL:MHPA:1,2009-09-04T11:00:00Z,30.6671,-87.9365,22.32,1111122 
DISL,ioos:station:DISL:MHPA:1,2009-09-04T11:30:00Z,30.6671,-87.9365,21.68,1111122 
DISL,ioos:station:DISL:MHPA:1,2009-09-04T12:00:00Z,30.6671,-87.9365,22.51,1111122 
DISL,ioos:station:DISL:MHPA:1,2009-09-04T12:30:00Z,30.6671,-87.9365,23.54,1111122 
DISL,ioos:station:DISL:MHPA:1,2009-09-04T13:00:00Z,30.6671,-87.9365,23.93,1111122 
DISL,ioos:station:DISL:MHPA:1,2009-09-04T13:30:00Z,30.6671,-87.9365,24.58,1111122 
DISL,ioos:station:DISL:MHPA:1,2009-09-04T14:00:00Z,30.6671,-87.9365,25.91,1111122 
DISL,ioos:station:DISL:MHPA:1,2009-09-04T14:30:00Z,30.6671,-87.9365,26.92,1111122 
DISL,ioos:station:DISL:MHPA:1,2009-09-04T15:00:00Z,30.6671,-87.9365,27.75,1111122 
DISL,ioos:station:DISL:MHPA:1,2009-09-04T15:30:00Z,30.6671,-87.9365,28.01,1111122 
DISL,ioos:station:DISL:MHPA:1,2009-09-04T16:00:00Z,30.6671,-87.9365,28.56,1111122 
DISL,ioos:station:DISL:MHPA:1,2009-09-04T16:30:00Z,30.6671,-87.9365,28.24,1111122 
DISL,ioos:station:DISL:MHPA:1,2009-09-04T17:00:00Z,30.6671,-87.9365,27.84,1111122 
DISL,ioos:station:DISL:MHPA:1,2009-09-04T17:30:00Z,30.6671,-87.9365,28.51,1111122 
DISL,ioos:station:DISL:MHPA:1,2009-09-04T18:00:00Z,30.6671,-87.9365,28.81,1111122 
DISL,ioos:station:DISL:MHPA:1,2009-09-04T18:30:00Z,30.6671,-87.9365,28.88,1111122 
DISL,ioos:station:DISL:MHPA:1,2009-09-04T19:00:00Z,30.6671,-87.9365,28.78,1111122 
DISL,ioos:station:DISL:MHPA:1,2009-09-04T19:30:00Z,30.6671,-87.9365,29.0,1111122 
DISL,ioos:station:DISL:MHPA:1,2009-09-04T20:00:00Z,30.6671,-87.9365,29.01,1111122 
DISL,ioos:station:DISL:MHPA:1,2009-09-04T20:30:00Z,30.6671,-87.9365,28.68,1111122 
DISL,ioos:station:DISL:MHPA:1,2009-09-04T21:00:00Z,30.6671,-87.9365,28.21,1111122 
DISL,ioos:station:DISL:MHPA:1,2009-09-04T21:30:00Z,30.6671,-87.9365,28.03,1111122 
DISL,ioos:station:DISL:MHPA:1,2009-09-04T22:00:00Z,30.6671,-87.9365,25.83,1111122 
DISL,ioos:station:DISL:MHPA:1,2009-09-04T22:30:00Z,30.6671,-87.9365,26.6,1111122 
DISL,ioos:station:DISL:MHPA:1,2009-09-04T23:00:00Z,30.6671,-87.9365,26.31,1111122 
DISL,ioos:station:DISL:MHPA:1,2009-09-04T23:30:00Z,30.6671,-87.9365,26.88,1111122 
DISL,ioos:station:DISL:MHPA:1,2009-09-05T00:00:00Z,30.6671,-87.9365,25.81,1111122 
DISL,ioos:station:DISL:MHPA:1,2009-09-05T00:30:00Z,30.6671,-87.9365,25.14,1111122 
DISL,ioos:station:DISL:MHPA:1,2009-09-05T01:00:00Z,30.6671,-87.9365,24.39,1111122 
DISL,ioos:station:DISL:MHPA:1,2009-09-05T01:30:00Z,30.6671,-87.9365,24.09,1111122 
DISL,ioos:station:DISL:MHPA:1,2009-09-05T02:00:00Z,30.6671,-87.9365,23.79,1111122 
DISL,ioos:station:DISL:MHPA:1,2009-09-05T02:30:00Z,30.6671,-87.9365,23.47,1111122 
DISL,ioos:station:DISL:MHPA:1,2009-09-05T03:00:00Z,30.6671,-87.9365,23.2,1111122 
DISL,ioos:station:DISL:MHPA:1,2009-09-05T03:30:00Z,30.6671,-87.9365,23.32,1111122 
DISL,ioos:station:DISL:MHPA:1,2009-09-05T04:00:00Z,30.6671,-87.9365,23.04,1111122 
DISL,ioos:station:DISL:MHPA:1,2009-09-05T04:30:00Z,30.6671,-87.9365,22.97,1111122 
DISL,ioos:station:DISL:MHPA:1,2009-09-05T05:00:00Z,30.6671,-87.9365,22.9,1111122 
DISL,ioos:station:DISL:MHPA:1,2009-09-05T05:30:00Z,30.6671,-87.9365,22.84,1111122 
DISL,ioos:station:DISL:MHPA:1,2009-09-05T06:00:00Z,30.6671,-87.9365,22.66,1111122 
DISL,ioos:station:DISL:MHPA:1,2009-09-05T06:30:00Z,30.6671,-87.9365,22.69,1111122 
DISL,ioos:station:DISL:MHPA:1,2009-09-05T07:00:00Z,30.6671,-87.9365,22.71,1111122 
DISL,ioos:station:DISL:MHPA:1,2009-09-05T07:30:00Z,30.6671,-87.9365,22.73,1111122 
DISL,ioos:station:DISL:MHPA:1,2009-09-05T08:00:00Z,30.6671,-87.9365,22.69,1111122 
DISL,ioos:station:DISL:MHPA:1,2009-09-05T08:30:00Z,30.6671,-87.9365,22.72,1111122 
DISL,ioos:station:DISL:MHPA:1,2009-09-05T09:00:00Z,30.6671,-87.9365,22.85,1111122 
DISL,ioos:station:DISL:MHPA:1,2009-09-05T09:30:00Z,30.6671,-87.9365,22.89,1111122 
DISL,ioos:station:DISL:MHPA:1,2009-09-05T10:00:00Z,30.6671,-87.9365,22.91,1111122 
DISL,ioos:station:DISL:MHPA:1,2009-09-05T10:30:00Z,30.6671,-87.9365,22.67,1111122 
DISL,ioos:station:DISL:MHPA:1,2009-09-05T11:00:00Z,30.6671,-87.9365,23.01,1111122 
DISL,ioos:station:DISL:MHPA:1,2009-09-05T11:30:00Z,30.6671,-87.9365,23.18,1111122 
DISL,ioos:station:DISL:MHPA:1,2009-09-05T12:00:00Z,30.6671,-87.9365,23.42,1111122 
DISL,ioos:station:DISL:MHPA:1,2009-09-05T12:30:00Z,30.6671,-87.9365,23.63,1111122 
DISL,ioos:station:DISL:MHPA:1,2009-09-05T13:00:00Z,30.6671,-87.9365,24.01,1111122 
DISL,ioos:station:DISL:MHPA:1,2009-09-05T13:30:00Z,30.6671,-87.9365,24.32,1111122 
DISL,ioos:station:DISL:MHPA:1,2009-09-05T14:00:00Z,30.6671,-87.9365,24.72,1111122 
DISL,ioos:station:DISL:MHPA:1,2009-09-05T14:30:00Z,30.6671,-87.9365,25.75,1111122 
DISL,ioos:station:DISL:MHPA:1,2009-09-05T15:00:00Z,30.6671,-87.9365,26.9,1111122 
DISL,ioos:station:DISL:MHPA:1,2009-09-05T15:30:00Z,30.6671,-87.9365,27.8,1111122 
DISL,ioos:station:DISL:MHPA:1,2009-09-05T16:00:00Z,30.6671,-87.9365,28.1,1111122 
DISL,ioos:station:DISL:MHPA:1,2009-09-05T16:30:00Z,30.6671,-87.9365,28.55,1111122 
DISL,ioos:station:DISL:MHPA:1,2009-09-05T17:00:00Z,30.6671,-87.9365,28.59,1111122 
DISL,ioos:station:DISL:MHPA:1,2009-09-05T17:30:00Z,30.6671,-87.9365,28.39,1111122 
DISL,ioos:station:DISL:MHPA:1,2009-09-05T18:00:00Z,30.6671,-87.9365,28.37,1111122 
DISL,ioos:station:DISL:MHPA:1,2009-09-05T18:30:00Z,30.6671,-87.9365,28.57,1111122 
DISL,ioos:station:DISL:MHPA:1,2009-09-05T19:00:00Z,30.6671,-87.9365,28.67,1111122 
DISL,ioos:station:DISL:MHPA:1,2009-09-05T19:30:00Z,30.6671,-87.9365,28.4,1111122 
DISL,ioos:station:DISL:MHPA:1,2009-09-05T20:00:00Z,30.6671,-87.9365,28.44,1111122 
DISL,ioos:station:DISL:MHPA:1,2009-09-05T20:30:00Z,30.6671,-87.9365,28.03,1111122 
DISL,ioos:station:DISL:MHPA:1,2009-09-05T21:00:00Z,30.6671,-87.9365,28.53,1111122 
DISL,ioos:station:DISL:MHPA:1,2009-09-05T21:30:00Z,30.6671,-87.9365,28.57,1111122 
DISL,ioos:station:DISL:MHPA:1,2009-09-05T22:00:00Z,30.6671,-87.9365,28.63,1111122 
DISL,ioos:station:DISL:MHPA:1,2009-09-05T22:30:00Z,30.6671,-87.9365,28.58,1111122 
DISL,ioos:station:DISL:MHPA:1,2009-09-05T23:00:00Z,30.6671,-87.9365,28.15,1111122 
DISL,ioos:station:DISL:MHPA:1,2009-09-05T23:30:00Z,30.6671,-87.9365,28.13,1111122 
DISL,ioos:station:DISL:MHPA:1,2009-09-06T00:00:00Z,30.6671,-87.9365,27.74,1111122 
DISL,ioos:station:DISL:MHPA:1,2009-09-06T00:30:00Z,30.6671,-87.9365,27.19,1111122 
DISL,ioos:station:DISL:MHPA:1,2009-09-06T01:00:00Z,30.6671,-87.9365,26.76,1111122 
DISL,ioos:station:DISL:MHPA:1,2009-09-06T01:30:00Z,30.6671,-87.9365,26.53,1111122 
DISL,ioos:station:DISL:MHPA:1,2009-09-06T02:00:00Z,30.6671,-87.9365,26.35,1111122 
DISL,ioos:station:DISL:MHPA:1,2009-09-06T02:30:00Z,30.6671,-87.9365,26.1,1111122 
DISL,ioos:station:DISL:MHPA:1,2009-09-06T03:00:00Z,30.6671,-87.9365,25.84,1111122 
DISL,ioos:station:DISL:MHPA:1,2009-09-06T03:30:00Z,30.6671,-87.9365,25.78,1111122 
DISL,ioos:station:DISL:MHPA:1,2009-09-06T04:00:00Z,30.6671,-87.9365,25.74,1111122 
DISL,ioos:station:DISL:MHPA:1,2009-09-06T04:30:00Z,30.6671,-87.9365,25.41,1111122 
DISL,ioos:station:DISL:MHPA:1,2009-09-06T05:00:00Z,30.6671,-87.9365,25.2,1111122 
DISL,ioos:station:DISL:MHPA:1,2009-09-06T05:30:00Z,30.6671,-87.9365,24.82,1111122 
DISL,ioos:station:DISL:MHPA:1,2009-09-06T06:00:00Z,30.6671,-87.9365,24.93,1111122 
DISL,ioos:station:DISL:MHPA:1,2009-09-06T06:30:00Z,30.6671,-87.9365,24.75,1111122 
DISL,ioos:station:DISL:MHPA:1,2009-09-06T07:00:00Z,30.6671,-87.9365,24.51,1111122 
DISL,ioos:station:DISL:MHPA:1,2009-09-06T07:30:00Z,30.6671,-87.9365,24.46,1111122 
DISL,ioos:station:DISL:MHPA:1,2009-09-06T08:00:00Z,30.6671,-87.9365,24.58,1111122 
DISL,ioos:station:DISL:MHPA:1,2009-09-06T08:30:00Z,30.6671,-87.9365,24.55,1111122 
DISL,ioos:station:DISL:MHPA:1,2009-09-06T09:00:00Z,30.6671,-87.9365,24.37,1111122 
DISL,ioos:station:DISL:MHPA:1,2009-09-06T09:30:00Z,30.6671,-87.9365,24.43,1111122 
DISL,ioos:station:DISL:MHPA:1,2009-09-06T10:00:00Z,30.6671,-87.9365,24.78,1111122 
DISL,ioos:station:DISL:MHPA:1,2009-09-06T10:30:00Z,30.6671,-87.9365,24.8,1111122 
DISL,ioos:station:DISL:MHPA:1,2009-09-06T11:00:00Z,30.6671,-87.9365,24.57,1111122 
DISL,ioos:station:DISL:MHPA:1,2009-09-06T11:30:00Z,30.6671,-87.9365,24.65,1111122 
DISL,ioos:station:DISL:MHPA:1,2009-09-06T12:00:00Z,30.6671,-87.9365,24.39,1111122 
DISL,ioos:station:DISL:MHPA:1,2009-09-06T12:30:00Z,30.6671,-87.9365,23.76,1111122 
DISL,ioos:station:DISL:MHPA:1,2009-09-06T13:00:00Z,30.6671,-87.9365,24.27,1111122 
DISL,ioos:station:DISL:MHPA:1,2009-09-06T13:30:00Z,30.6671,-87.9365,24.83,1111122 
DISL,ioos:station:DISL:MHPA:1,2009-09-06T14:00:00Z,30.6671,-87.9365,24.74,1111122 
DISL,ioos:station:DISL:MHPA:1,2009-09-06T14:30:00Z,30.6671,-87.9365,22.19,1111122 
DISL,ioos:station:DISL:MHPA:1,2009-09-06T15:00:00Z,30.6671,-87.9365,21.13,1111122 
DISL,ioos:station:DISL:MHPA:1,2009-09-06T15:30:00Z,30.6671,-87.9365,21.49,1111122 
DISL,ioos:station:DISL:MHPA:1,2009-09-06T16:00:00Z,30.6671,-87.9365,22.08,1111122 
DISL,ioos:station:DISL:MHPA:1,2009-09-06T16:30:00Z,30.6671,-87.9365,22.56,1111122 
DISL,ioos:station:DISL:MHPA:1,2009-09-06T17:00:00Z,30.6671,-87.9365,23.56,1111122 
DISL,ioos:station:DISL:MHPA:1,2009-09-06T17:30:00Z,30.6671,-87.9365,25.36,1111122 
DISL,ioos:station:DISL:MHPA:1,2009-09-06T18:00:00Z,30.6671,-87.9365,27.18,1111122 
DISL,ioos:station:DISL:MHPA:1,2009-09-06T18:30:00Z,30.6671,-87.9365,27.65,1111122 
DISL,ioos:station:DISL:MHPA:1,2009-09-06T19:00:00Z,30.6671,-87.9365,27.8,1111122 
DISL,ioos:station:DISL:MHPA:1,2009-09-06T19:30:00Z,30.6671,-87.9365,28.06,1111122 
DISL,ioos:station:DISL:MHPA:1,2009-09-06T20:00:00Z,30.6671,-87.9365,28.12,1111122 
DISL,ioos:station:DISL:MHPA:1,2009-09-06T20:30:00Z,30.6671,-87.9365,26.93,1111122 
DISL,ioos:station:DISL:MHPA:1,2009-09-06T21:00:00Z,30.6671,-87.9365,26.51,1111122 
DISL,ioos:station:DISL:MHPA:1,2009-09-06T21:30:00Z,30.6671,-87.9365,26.73,1111122 
DISL,ioos:station:DISL:MHPA:1,2009-09-06T22:00:00Z,30.6671,-87.9365,26.98,1111122 
DISL,ioos:station:DISL:MHPA:1,2009-09-06T22:30:00Z,30.6671,-87.9365,27.07,1111122 
DISL,ioos:station:DISL:MHPA:1,2009-09-06T23:00:00Z,30.6671,-87.9365,26.82,1111122 
DISL,ioos:station:DISL:MHPA:1,2009-09-06T23:30:00Z,30.6671,-87.9365,26.94,1111122 